Location: Chippewa Lake
(41.0698°N, 81.9010°W)
Time: 11:53:22
(UTC+00:00)

Cosmos 2084 - Pass Details

Date: 29 September 2021
Orbit: 529 x 652 km, 62.8° (Epoch: 20 October)

Event Time Altitude Azimuth Distance (km) Brightness Sun altitude
Exits shadow 08:33:16 20° 89° (E) 1,292 5.7 -31.7°
Drops below altitude 10° 08:35:13 10° 63° (ENE) 1,801 6.8 -31.3°
Sets 08:37:47 0° 49° (NE) 2,714 7.9 -30.9°
